Location: Beccas
(43.4309°N, 0.1528°E)
Time: 06:50:33
(UTC+00:00)

Cosmos 1703 - Pass Details

Date: 26 May 2022
Orbit: 518 x 535 km, 82.5° (Epoch: 06 July)

Event Time Altitude Azimuth Distance (km) Brightness Sun altitude
Exits shadow 03:12:25 17° 231° (SW) 1,405 4.7 -11.4°
Maximum altitude 03:14:49 31° 284° (WNW) 959 4.3 -11.0°
Drops below altitude 10° 03:18:21 10° 348° (NNW) 1,795 6.4 -10.6°
Sets 03:20:42 0° 359° (N) 2,689 7.5 -10.3°
